Flag for Germany Weather past 2 weeks in Rendsburg, Schleswig-Holstein, Germany

Now
52 °F

Partly cloudy.


Feels Like: 49 °F
Forecast: 45 / 56 °F
Wind: 8 mph from South

Location: Hohn

Current Time: May 28, 2015 at 4:47:46 AM

Latest Report: May 28, 2015 at 3:20 AM


Visibility: N/A

Pressure: 29.89 "Hg

Humidity: 72%

Dew point: 43 °F

Location of RendsburgLocation

Historic Weather in Rendsburg — Graph

°F

Rendsburg temperature yesterday

Maximum temperature yesterday: 57 °F (at 2:20 PM)
Minimum temperature yesterday: 48 °F (at 12:20 AM)
Average temperature yesterday: 52 °F

Past Weeks' High & Low Weather Summary

 TemperatureHumidityPressure
High64 °F (May 22, 3:20 PM)100% (May 18, 10:20 PM)30.27 "Hg (May 18, 10:20 PM)
Low36 °F (May 24, 5:20 AM)47% (May 17, 4:20 PM)29.53 "Hg (May 18, 11:20 PM)
Average50 °F76%30.00 "Hg
* Reported May 13 3:20 AM — May 28 3:20 AM, Rendsburg, Weather by CustomWeather, © 2015

Note: Actual official high and low records may vary slightly from our data, if they occured in-between our weather recording intervals... More about our weather records

Advertising

Rendsburg weather history for previous 24 hours

 ConditionsComfort  
Time TempWeatherWind HumidityBarometerVisibility
3:20 AM
Thu, May 28
52 °FPartly cloudy.8 mph72%29.89 "HgN/A
2:20 AM52 °FPassing clouds.7 mph72%29.92 "HgN/A
1:20 AM52 °FPassing clouds.5 mph72%29.95 "HgN/A
11:20 PM
Wed, May 27
52 °FPartly cloudy.2 mph72%30.01 "HgN/A
10:20 PM52 °FPartly sunny.2 mph72%30.04 "HgN/A
9:20 PM54 °FPartly sunny.2 mph67%30.04 "HgN/A
8:20 PM54 °FPartly sunny.2 mph63%30.07 "HgN/A
7:20 PM55 °FScattered clouds.9 mph59%30.07 "HgN/A
6:20 PM55 °FScattered clouds.10 mph55%30.09 "HgN/A
5:20 PM55 °FPartly sunny.13 mph59%30.12 "HgN/A
4:20 PM55 °FPartly sunny.16 mph59%30.12 "HgN/A
3:20 PM57 °FPartly sunny.20 mph55%30.12 "HgN/A
2:20 PM57 °FScattered clouds.16 mph55%30.12 "HgN/A
1:20 PM55 °FPassing clouds.20 mph55%30.12 "HgN/A
12:20 PM55 °FScattered clouds.14 mph63%30.15 "HgN/A
11:20 AM52 °FBroken clouds.17 mph72%30.15 "HgN/A
10:20 AM52 °FBroken clouds.13 mph67%30.12 "HgN/A
9:20 AM52 °FBroken clouds.12 mph67%30.12 "HgN/A
8:20 AM50 °FPartly sunny.13 mph76%30.12 "HgN/A
7:20 AM50 °FPartly sunny.10 mph76%30.12 "HgN/A
6:20 AM48 °FPartly sunny.10 mph82%30.12 "HgN/A
5:20 AM48 °FCool.10 mph82%30.09 "HgN/A
4:20 AM48 °FCool.10 mph82%30.09 "HgN/A
Weather by CustomWeather, © 2015

See weather overviewHow to use our weather pages